Weather History for Wilmington, NC

Change the Weather History Date:

Tuesday, February 19, 2013

  Actual Average Record
Temperature  
Mean Temperature 48 °F 50 °F  
Max Temperature 63 °F 61 °F 78 °F (1976)
Min Temperature 32 °F 38 °F 17 °F (1958)
Degree Days  
Heating Degree Days 17 16  
Month to date heating degree days 342 322  
Since 1 July heating degree days 1666 1797  
Cooling Degree Days 0 0  
Month to date cooling degree days 0 0  
Year to date cooling degree days 12 2  
Moisture  
Dew Point 44 °F    
Average Humidity 78    
Maximum Humidity 96    
Minimum Humidity 60    
Precipitation  
Precipitation T in 0.13 in 1.52 in (1898)
Month to date precipitation 2.84 2.43  
Year to date precipitation 4.97 6.19  
Snow  
Snow 0.00 in 0.00 in T in (1972)
Month to date snowfall T 0.2  
Since 1 July snowfall T 1.4  
Snow Depth 0.00 in    
Sea Level Pressure  
Sea Level Pressure 30.08 in    
Wind  
Wind Speed 8 mph (SW)    
Max Wind Speed 26 mph    
Max Gust Speed 36 mph    
Visibility 10 miles    
Events Rain    
T = Trace of Precipitation, MM = Missing Value Source: NWS Daily Summary

Daily Weather History Graph

Daily Weather History Graph

Search for Another Location

Airport:

Trip Planner

Search our weather history database for the weather conditions in past years. The results will help you decide how hot, cold, wet, or windy it might be!

Date:

Astronomy

Feb. 19, 2013 Rise Set
Actual Time 6:52 AM EST 5:59 PM EST
Civil Twilight 6:26 AM EST 6:24 PM EST
Nautical Twilight 5:57 AM EST 6:54 PM EST
Astronomical Twilight 5:28 AM EST 7:23 PM EST
Moon 12:37 PM EST (2/19) 2:14 AM EST (2/19)
Length of Visible Light 11h 58m
Length of Day
11h 07m
Waxing Gibbous, 67% of the Moon is Illuminated
Feb 19
Waxing Gibbous
Feb 25
Full
Mar 4
Last Quarter
Mar 11
New
Mar 19
First Quarter

Hourly Weather History & Observations

Time (EST) Temp. Windchill Dew Point Humidity Pressure Visibility Wind Dir Wind Speed Gust Speed Precip Events Conditions
12:53 AM 32.0 °F - 28.0 °F 85% 30.30 in 10.0 mi Calm Calm - N/A   Clear
1:53 AM 32.0 °F 28.7 °F 28.9 °F 88% 30.26 in 9.0 mi ESE 3.5 mph - N/A   Clear
2:53 AM 35.1 °F - 30.0 °F 82% 30.25 in 10.0 mi Calm Calm - N/A   Clear
3:53 AM 34.0 °F - 30.9 °F 89% 30.21 in 10.0 mi Calm Calm - N/A   Clear
4:53 AM 34.0 °F - 32.0 °F 92% 30.19 in 10.0 mi Calm Calm - N/A   Partly Cloudy
5:53 AM 36.0 °F 32.1 °F 33.1 °F 89% 30.17 in 10.0 mi ESE 4.6 mph - N/A   Clear
6:53 AM 39.0 °F - 36.0 °F 89% 30.16 in 10.0 mi Calm Calm - N/A   Clear
7:53 AM 43.0 °F - 39.9 °F 89% 30.16 in 10.0 mi Calm Calm - N/A   Scattered Clouds
8:53 AM 54.0 °F - 48.0 °F 80% 30.16 in 10.0 mi Calm Calm - N/A   Clear
9:53 AM 60.1 °F - 50.0 °F 69% 30.14 in 10.0 mi SSW 8.1 mph - N/A   Scattered Clouds
10:53 AM 63.0 °F - 48.9 °F 60% 30.11 in 10.0 mi South 8.1 mph - N/A   Clear
11:53 AM 60.8 °F - 51.8 °F 72% 30.08 in 7.0 mi SSW 11.5 mph 19.6 mph N/A Rain Light Rain
1:53 PM 60.8 °F - 50.0 °F 68% 30.00 in 10.0 mi SSW 10.4 mph - N/A Rain Light Rain
2:53 PM 60.1 °F - 50.0 °F 69% 29.98 in 10.0 mi SSW 11.5 mph - 0.00 in   Overcast
3:53 PM 60.1 °F - 48.9 °F 67% 29.96 in 10.0 mi SW 12.7 mph - 0.00 in Rain Light Rain
4:53 PM 60.1 °F - 48.9 °F 67% 29.95 in 10.0 mi SW 20.7 mph 28.8 mph 0.00 in   Overcast
5:29 PM 55.4 °F - 50.0 °F 82% 29.95 in 5.0 mi SW 16.1 mph 29.9 mph 0.00 in Rain Light Rain
5:53 PM 55.9 °F - 52.0 °F 87% 29.95 in 10.0 mi SSW 13.8 mph 21.9 mph 0.00 in   Overcast
6:29 PM 57.2 °F - 53.6 °F 88% 29.95 in 10.0 mi SW 17.3 mph 28.8 mph N/A   Overcast
7:53 PM 57.9 °F - 53.1 °F 84% 29.95 in 10.0 mi WSW 16.1 mph 28.8 mph N/A   Overcast
8:29 PM 57.2 °F - 51.8 °F 82% 29.95 in 10.0 mi WSW 16.1 mph - N/A   Scattered Clouds
8:53 PM 55.9 °F - 51.1 °F 84% 29.96 in 10.0 mi WSW 12.7 mph - N/A   Partly Cloudy
9:53 PM 54.0 °F - 46.0 °F 75% 29.99 in 10.0 mi West 17.3 mph 26.5 mph N/A   Partly Cloudy
10:53 PM 51.1 °F - 45.0 °F 80% 29.99 in 10.0 mi West 9.2 mph - N/A   Clear
11:53 PM 48.0 °F - 44.1 °F 86% 29.99 in 10.0 mi WSW 5.8 mph - N/A   Clear